This is the latest recevied weather packets stored in our database for station/object K6JWN. If no packets are shown the sender has not sent any weather packets the latest 1 day(s).
| Time | Temp. | Humidity | Pressure | Rain* | Wind** | Luminosity | Snow |
|---|---|---|---|---|---|---|---|
| 1778039957 | 16.67° C | 72% | 1015.7 hPa | 0 mm | 0.45 m/s, 225° | - | - |
| 1778039357 | 16.67° C | 72% | 1015.6 hPa | 0 mm | 0.89 m/s, 225° | - | - |
| 1778038757 | 16.67° C | 72% | 1015.7 hPa | 0 mm | 0.45 m/s, 225° | - | - |
| 1778038157 | 16.67° C | 72% | 1015.4 hPa | 0 mm | 0.45 m/s, 225° | - | - |
| 1778037557 | 17.22° C | 71% | 1015.2 hPa | 0 mm | 0.89 m/s, 225° | - | - |
| 1778036957 | 17.22° C | 71% | 1015.2 hPa | 0 mm | 0.89 m/s, 225° | - | - |
| 1778036357 | 17.22° C | 70% | 1015.2 hPa | 0 mm | 0.89 m/s, 225° | - | - |
| 1778035757 | 17.22° C | 70% | 1014.9 hPa | 0 mm | 0.89 m/s, 225° | - | - |
| 1778035157 | 17.22° C | 70% | 1014.8 hPa | 0 mm | 1.34 m/s, 225° | - | - |
| 1778034557 | 17.22° C | 70% | 1014.6 hPa | 0 mm | 0.89 m/s, 225° | - | - |
| 1778033957 | 17.22° C | 70% | 1014.6 hPa | 0 mm | 0.89 m/s, 225° | - | - |
| 1778033360 | 17.78° C | 70% | 1014.6 hPa | 0 mm | 1.34 m/s, 225° | - | - |
| 1778032757 | 17.78° C | 70% | 1014.6 hPa | 0 mm | 1.34 m/s, 225° | - | - |
| 1778032157 | 17.78° C | 70% | 1014.6 hPa | 0 mm | 1.79 m/s, 45° | - | - |
| 1778031557 | 17.78° C | 69% | 1014.5 hPa | 0 mm | 1.34 m/s, 45° | - | - |
| 1778030957 | 17.78° C | 70% | 1014.5 hPa | 0 mm | 0.89 m/s, 45° | - | - |
| 1778030357 | 17.78° C | 68% | 1014.5 hPa | 0 mm | 0.89 m/s, 45° | - | - |
| 1778029757 | 17.78° C | 68% | 1014.3 hPa | 0 mm | 1.34 m/s, 45° | - | - |
| 1778029157 | 17.78° C | 68% | 1014.3 hPa | 0 mm | 1.34 m/s, 45° | - | - |
| 1778028557 | 18.33° C | 66% | 1014.3 hPa | 0 mm | 0.45 m/s, 225° | - | - |
| 1778027957 | 18.33° C | 66% | 1014.3 hPa | 0 mm | 0.45 m/s, 45° | - | - |
| 1778027357 | 18.33° C | 65% | 1014.3 hPa | 0 mm | 0.89 m/s, 225° | - | - |
| 1778026757 | 18.33° C | 66% | 1014.2 hPa | 0 mm | 0.45 m/s, 225° | - | - |
| 1778026157 | 18.33° C | 66% | 1014.2 hPa | 0 mm | 1.79 m/s, 225° | - | - |
| 1778025557 | 18.33° C | 64% | 1014.2 hPa | 0 mm | 2.24 m/s, 225° | - | - |
* Rain latest hour (hover to see other rain measurements)
** Current wind speed in m/s (hover to see current wind gust speed)